OBJECT B, 59774

Orbit data source: Space-Track

You're viewing an Uncataloged Satellite

Recently launched and/or uncataloged satellites may have evolving metadata. Metadata may include but not limited to: Owner, Maufacturer, Bus, Motor, and Mission.

OBJECT B, 59774 is a satellite owned by Sputniks (CIS) in SSO that was launched on Thu, 16 May 2024 UTC via a SOYUZ-2-1B launch vehicle from the Plesetsk Missile And Space Complex (PKMTR). Unknown objects in Earth's orbit typically refer to objects detected orbiting the Earth but have not yet been identified or cataloged. These objects could be anything from previously untracked satellites, spent rocket stages, debris from satellite collisions, or even natural meteoroids temporarily captured by Earth's gravity.

Loading next visibility...
Identifier
59774, 2024-092B
Orbit
SSO
Country
Flag of CISCIS
Related business
Manufacturer
Sputniks
Mission
Operational Commercial Imaging
Bus & Motor
CUBESAT 12U, Unknown motor
Mass
20 kg wet, 20 kg dry
Launch date (UTC)
2024-05-16 (2 years ago)
Launch vehicle
SOYUZ-2-1B
Launch site
Plesetsk Missile And Space Complex (PKMTR)
Object type
Unknown
Shape & HBR
Box, 0.2 m
Radar Cross Section
0.100 m², Medium (>0.1 m² and < 1m²)

Expand to show TLE details & history
Last TLE update: 20 hours ago

TLE from 20 hours ago
0 OBJECT B
1 59774U 24092B   25346.30218738  .00016544  00000-0  67934-3 0  9993
2 59774  97.6293 106.2016 0010561 115.2613 244.9720 15.24238425 87029
Epoch: 2025-12-12T07:15Z
TLE epoch observation values (Epoch: 2025-12-12T07:15:08.989Z)
Latitude
0.00002°
Longitude
-83.83162°
Altitude
499.24 km
Speed
7.613 km/s
True Right ascension
07h 04m 48s
True Declination
0° 00' 00"
Sunlit
Object was in full shadow at epoch
Visualization orbit readout
Latitude
Unknown
Longitude
Unknown
Altitude
Unknown
Speed
Unknown
Apparent Right ascension
Unknown
Apparent Declination
Unknown
Sunlit
N/A
Visualization observer readout
Local Sidereal Time
01:30:46
Azimuth
Unknown
Elevation
Unknown
Doppler factor
Unknown
Orbital elements
Apogee altitude
497.297 km
Perigee altitude
482.79 km
Semi-major axis
6,868.18 km
Eccentricity
0.00106
Inclination
97.6293°
RAAN
106.2016°
Arg. of periapsis
115.2613°
True anomaly
244.8624°
Mean anomaly
244.972°
Eccentric anomaly
244.9172°
Mean motion
3.81312 °/min
Orbital period
94.41 mins
BSTAR
0.00067934
Loading maneuver chart data...
Computing Atmospheric mass density...
Loading historical data...
Loading historical data...
Loading historical data...
Loading historical data...
Loading historical data...
Loading historical data...
Loading historical data...

Documentation

Showing up to 5 results
|